Time,TemperatureF,DewpointF,PressureIn,WindDirection,WindDirectionDegrees,WindSpeedMPH,WindSpeedGustMPH,Humidity,HourlyPrecipIn,Conditions,Clouds,dailyrainin,SolarRadiationWatts/m^2,SoftwareType,DateUTC
2013-02-16 00:01:00,43.0,40.0,30.32,ENE,72,3.0,5.0,89,-99.99,,,0.00,0.000000,,2013-02-16 08:01:00,
2013-02-16 00:11:00,43.0,40.0,30.32,ENE,72,3.0,5.0,89,-99.99,,,0.00,0.000000,,2013-02-16 08:11:00,
2013-02-16 00:41:00,42.0,39.0,30.32,ENE,62,2.0,5.0,88,-99.99,,,0.00,0.000000,,2013-02-16 08:41:00,
2013-02-16 00:52:00,42.0,39.0,30.32,ENE,62,2.0,5.0,88,-99.99,,,0.00,0.000000,,2013-02-16 08:52:00,
2013-02-16 01:01:00,42.0,39.0,30.32,ENE,62,2.0,5.0,88,-99.99,,,0.00,0.000000,,2013-02-16 09:01:00,
2013-02-16 01:11:00,42.0,39.0,30.32,ENE,62,2.0,5.0,88,-99.99,,,0.00,0.000000,,2013-02-16 09:11:00,
2013-02-16 01:42:00,41.0,39.0,30.31,ENE,62,3.0,6.0,91,-99.99,,,0.00,0.000000,,2013-02-16 09:42:00,
2013-02-16 01:52:00,41.0,39.0,30.31,ENE,62,3.0,6.0,91,-99.99,,,0.00,0.000000,,2013-02-16 09:52:00,
2013-02-16 02:01:00,41.0,39.0,30.31,ENE,62,3.0,6.0,91,-99.99,,,0.00,0.000000,,2013-02-16 10:01:00,
2013-02-16 02:11:00,41.0,39.0,30.31,ENE,62,3.0,6.0,91,-99.99,,,0.00,0.000000,,2013-02-16 10:11:00,
2013-02-16 02:41:00,40.0,38.0,30.31,ENE,61,1.0,4.0,91,-99.99,,,0.00,0.000000,,2013-02-16 10:41:00,
2013-02-16 02:52:00,40.0,38.0,30.31,ENE,61,1.0,4.0,91,-99.99,,,0.00,0.000000,,2013-02-16 10:52:00,
2013-02-16 03:02:00,40.0,38.0,30.31,ENE,61,1.0,4.0,91,-99.99,,,0.00,0.000000,,2013-02-16 11:02:00,
2013-02-16 03:11:00,40.0,38.0,30.31,ENE,61,1.0,4.0,91,-99.99,,,0.00,0.000000,,2013-02-16 11:11:00,
2013-02-16 03:42:00,39.0,37.0,30.30,ENE,71,2.0,5.0,92,-99.99,,,0.00,0.000000,,2013-02-16 11:42:00,
2013-02-16 03:52:00,39.0,37.0,30.30,ENE,71,2.0,5.0,92,-99.99,,,0.00,0.000000,,2013-02-16 11:52:00,
2013-02-16 04:01:00,39.0,37.0,30.30,ENE,71,2.0,5.0,92,-99.99,,,0.00,0.000000,,2013-02-16 12:01:00,
2013-02-16 04:12:00,39.0,37.0,30.30,ENE,71,2.0,5.0,92,-99.99,,,0.00,0.000000,,2013-02-16 12:12:00,
2013-02-16 04:42:00,38.0,37.0,30.29,ENE,66,2.0,5.0,93,-99.99,,,0.00,0.000000,,2013-02-16 12:42:00,
2013-02-16 04:52:00,38.0,37.0,30.29,ENE,66,2.0,5.0,93,-99.99,,,0.00,0.000000,,2013-02-16 12:52:00,
2013-02-16 05:01:00,38.0,37.0,30.29,ENE,66,2.0,5.0,93,-99.99,,,0.00,0.000000,,2013-02-16 13:01:00,
2013-02-16 05:11:00,38.0,37.0,30.29,ENE,66,2.0,5.0,93,-99.99,,,0.00,0.000000,,2013-02-16 13:11:00,
2013-02-16 06:41:00,37.0,36.0,30.28,NNW,346,0.0,2.0,96,-99.99,,,0.00,0.000000,,2013-02-16 14:41:00,
2013-02-16 06:52:00,37.0,36.0,30.28,NNW,346,0.0,2.0,96,-99.99,,,0.00,0.000000,,2013-02-16 14:52:00,
2013-02-16 07:01:00,37.0,36.0,30.28,NNW,346,0.0,2.0,96,-99.99,,,0.00,0.000000,,2013-02-16 15:01:00,
2013-02-16 07:11:00,37.0,36.0,30.28,NNW,346,0.0,2.0,96,-99.99,,,0.00,0.000000,,2013-02-16 15:11:00,
2013-02-16 07:41:00,38.0,38.0,30.28,WNW,296,2.0,5.0,96,-99.99,,,0.00,0.930000,,2013-02-16 15:41:00,
2013-02-16 07:52:00,38.0,38.0,30.28,WNW,296,2.0,5.0,96,-99.99,,,0.00,0.930000,,2013-02-16 15:52:00,
2013-02-16 08:01:00,38.0,38.0,30.28,WNW,296,2.0,5.0,96,-99.99,,,0.00,0.930000,,2013-02-16 16:01:00,
2013-02-16 08:11:00,38.0,38.0,30.28,WNW,296,2.0,5.0,96,-99.99,,,0.00,0.930000,,2013-02-16 16:11:00,
2013-02-16 08:41:00,44.0,42.0,30.30,WSW,256,9.0,15.0,90,-99.99,,,0.00,5.230000,,2013-02-16 16:41:00,
2013-02-16 08:52:00,44.0,42.0,30.30,WSW,256,9.0,15.0,90,-99.99,,,0.00,5.230000,,2013-02-16 16:52:00,
2013-02-16 09:01:00,44.0,42.0,30.30,WSW,256,9.0,15.0,90,-99.99,,,0.00,5.230000,,2013-02-16 17:01:00,
2013-02-16 09:11:00,44.0,42.0,30.30,WSW,256,9.0,15.0,90,-99.99,,,0.00,5.230000,,2013-02-16 17:11:00,
2013-02-16 09:41:00,44.0,42.0,30.31,WSW,250,6.0,13.0,95,-99.99,,,-99.99,19.410000,,2013-02-16 17:41:00,
2013-02-16 09:52:00,44.0,42.0,30.31,WSW,250,6.0,13.0,95,-99.99,,,-99.99,19.410000,,2013-02-16 17:52:00,
2013-02-16 10:01:00,44.0,42.0,30.31,WSW,250,6.0,13.0,95,-99.99,,,-99.99,19.410000,,2013-02-16 18:01:00,
2013-02-16 10:11:00,44.0,42.0,30.31,WSW,250,6.0,13.0,95,-99.99,,,-99.99,19.410000,,2013-02-16 18:11:00,
2013-02-16 10:42:00,44.0,43.0,30.31,West,269,7.0,13.0,93,-99.99,,,0.00,57.990002,,2013-02-16 18:42:00,
2013-02-16 10:52:00,44.0,43.0,30.31,West,269,7.0,13.0,93,-99.99,,,0.00,57.990002,,2013-02-16 18:52:00,
2013-02-16 11:02:00,44.0,43.0,30.31,West,269,7.0,13.0,93,-99.99,,,0.00,57.990002,,2013-02-16 19:02:00,
2013-02-16 11:11:00,44.0,43.0,30.31,West,269,7.0,13.0,93,-99.99,,,0.00,57.990002,,2013-02-16 19:11:00,
2013-02-16 11:42:00,46.0,43.0,30.30,West,269,8.0,14.0,91,-99.99,,,0.00,172.940002,,2013-02-16 19:42:00,
2013-02-16 11:52:00,46.0,43.0,30.30,West,269,8.0,14.0,91,-99.99,,,0.00,172.940002,,2013-02-16 19:52:00,
2013-02-16 12:01:00,46.0,43.0,30.30,West,269,8.0,14.0,91,-99.99,,,0.00,172.940002,,2013-02-16 20:01:00,
2013-02-16 12:11:00,46.0,43.0,30.30,West,269,8.0,14.0,91,-99.99,,,0.00,172.940002,,2013-02-16 20:11:00,
2013-02-16 12:42:00,46.0,43.0,30.29,West,266,9.0,16.0,91,-99.99,,,0.00,110.639999,,2013-02-16 20:42:00,
2013-02-16 12:52:00,46.0,43.0,30.29,West,266,9.0,16.0,91,-99.99,,,0.00,110.639999,,2013-02-16 20:52:00,
2013-02-16 13:02:00,46.0,43.0,30.29,West,266,9.0,16.0,91,-99.99,,,0.00,110.639999,,2013-02-16 21:02:00,
2013-02-16 13:11:00,46.0,43.0,30.29,West,266,9.0,16.0,91,-99.99,,,0.00,110.639999,,2013-02-16 21:11:00,
2013-02-16 13:41:00,46.0,44.0,30.27,WSW,257,8.0,16.0,93,-99.99,,,0.00,170.029999,,2013-02-16 21:41:00,
2013-02-16 13:52:00,46.0,44.0,30.27,WSW,257,8.0,16.0,93,-99.99,,,0.00,170.029999,,2013-02-16 21:52:00,
2013-02-16 14:01:00,46.0,44.0,30.27,WSW,257,8.0,16.0,93,-99.99,,,0.00,170.029999,,2013-02-16 22:01:00,
2013-02-16 14:11:00,46.0,44.0,30.27,WSW,257,8.0,16.0,93,-99.99,,,0.00,170.029999,,2013-02-16 22:11:00,
2013-02-16 14:42:00,47.0,45.0,30.25,West,275,8.0,17.0,92,-99.99,,,0.00,179.910004,,2013-02-16 22:42:00,
2013-02-16 14:52:00,47.0,45.0,30.25,West,275,8.0,17.0,92,-99.99,,,0.00,179.910004,,2013-02-16 22:52:00,
2013-02-16 15:02:00,47.0,45.0,30.25,West,275,8.0,17.0,92,-99.99,,,0.00,179.910004,,2013-02-16 23:02:00,
2013-02-16 15:11:00,47.0,45.0,30.25,West,275,8.0,17.0,92,-99.99,,,0.00,179.910004,,2013-02-16 23:11:00,
2013-02-16 15:42:00,46.0,42.0,30.26,West,266,8.0,16.0,86,-99.99,,,0.01,32.310001,,2013-02-16 23:42:00,
2013-02-16 15:52:00,46.0,42.0,30.26,West,266,8.0,16.0,86,-99.99,,,0.01,32.310001,,2013-02-16 23:52:00,
2013-02-16 16:02:00,46.0,42.0,30.26,West,266,8.0,16.0,86,-99.99,,,0.01,32.310001,,2013-02-17 00:02:00,
2013-02-16 16:11:00,46.0,42.0,30.26,West,266,8.0,16.0,86,-99.99,,,0.01,32.310001,,2013-02-17 00:11:00,
2013-02-16 16:41:00,45.0,43.0,30.26,WNW,288,6.0,10.0,90,-99.99,,,0.01,91.120003,,2013-02-17 00:41:00,
2013-02-16 16:52:00,45.0,43.0,30.26,WNW,288,6.0,10.0,90,-99.99,,,0.01,91.120003,,2013-02-17 00:52:00,
2013-02-16 17:01:00,45.0,43.0,30.26,WNW,288,6.0,10.0,90,-99.99,,,0.01,91.120003,,2013-02-17 01:01:00,
2013-02-16 17:11:00,45.0,43.0,30.26,WNW,288,6.0,10.0,90,-99.99,,,0.01,91.120003,,2013-02-17 01:11:00,
2013-02-16 18:41:00,45.0,42.0,30.27,West,276,7.0,10.0,89,-99.99,,,0.01,0.000000,,2013-02-17 02:41:00,
2013-02-16 18:52:00,45.0,42.0,30.27,West,276,7.0,10.0,89,-99.99,,,0.01,0.000000,,2013-02-17 02:52:00,
2013-02-16 19:01:00,45.0,42.0,30.27,West,276,7.0,10.0,89,-99.99,,,0.01,0.000000,,2013-02-17 03:01:00,
2013-02-16 19:11:00,45.0,42.0,30.27,West,276,7.0,10.0,89,-99.99,,,0.01,0.000000,,2013-02-17 03:11:00,
2013-02-16 19:42:00,45.0,40.0,30.28,WSW,256,6.0,12.0,84,-99.99,,,0.01,0.000000,,2013-02-17 03:42:00,
2013-02-16 19:52:00,45.0,40.0,30.28,WSW,256,6.0,12.0,84,-99.99,,,0.01,0.000000,,2013-02-17 03:52:00,
2013-02-16 20:01:00,45.0,40.0,30.28,WSW,256,6.0,12.0,84,-99.99,,,0.01,0.000000,,2013-02-17 04:01:00,
2013-02-16 20:11:00,45.0,40.0,30.28,WSW,256,6.0,12.0,84,-99.99,,,0.01,0.000000,,2013-02-17 04:11:00,
2013-02-16 20:41:00,44.0,39.0,30.30,West,273,6.0,13.0,84,-99.99,,,0.01,0.000000,,2013-02-17 04:41:00,
2013-02-16 20:52:00,44.0,39.0,30.30,West,273,6.0,13.0,84,-99.99,,,0.01,0.000000,,2013-02-17 04:52:00,
2013-02-16 21:01:00,44.0,39.0,30.30,West,273,6.0,13.0,84,-99.99,,,0.01,0.000000,,2013-02-17 05:01:00,
2013-02-16 21:11:00,44.0,39.0,30.30,West,273,6.0,13.0,84,-99.99,,,0.01,0.000000,,2013-02-17 05:11:00,
2013-02-16 21:42:00,43.0,38.0,30.30,WSW,257,7.0,13.0,82,-99.99,,,0.01,0.000000,,2013-02-17 05:42:00,
2013-02-16 21:52:00,43.0,38.0,30.30,WSW,257,7.0,13.0,82,-99.99,,,0.01,0.000000,,2013-02-17 05:52:00,
2013-02-16 22:02:00,43.0,38.0,30.30,WSW,257,7.0,13.0,82,-99.99,,,0.01,0.000000,,2013-02-17 06:02:00,
2013-02-16 22:11:00,43.0,38.0,30.30,WSW,257,7.0,13.0,82,-99.99,,,0.01,0.000000,,2013-02-17 06:11:00,
2013-02-16 22:41:00,43.0,38.0,30.30,West,265,8.0,14.0,81,-99.99,,,0.01,0.000000,,2013-02-17 06:41:00,
2013-02-16 22:52:00,43.0,38.0,30.30,West,265,8.0,14.0,81,-99.99,,,0.01,0.000000,,2013-02-17 06:52:00,
2013-02-16 23:01:00,43.0,38.0,30.30,West,265,8.0,14.0,81,-99.99,,,0.01,0.000000,,2013-02-17 07:01:00,
2013-02-16 23:11:00,43.0,38.0,30.30,West,265,8.0,14.0,81,-99.99,,,0.01,0.000000,,2013-02-17 07:11:00,
2013-02-16 23:41:00,43.0,38.0,30.31,West,275,8.0,14.0,80,-99.99,,,0.01,0.000000,,2013-02-17 07:41:00,
2013-02-16 23:52:00,43.0,38.0,30.31,West,275,8.0,14.0,80,-99.99,,,0.01,0.000000,,2013-02-17 07:52:00,